Tracking 19638 objects as of 20-Apr-2019
HD Live streaming from Space Station
objects crossing your sky now

COSMOS 624

Track COSMOS 624 now!
10-day predictions
COSMOS 624 is classified as:


NORAD ID: 6992
Int'l Code: 1973-104H
Perigee: 1,357.3 km
Apogee: 1,492.7 km
Inclination: 74.0 °
Period: 114.2 minutes
Semi major axis: 7795 km
RCS: 0.676 m2 (medium)
Launch date: December 19, 1973
Source: Commonwealth of Independent States (former USSR) (CIS)
Launch site: PLESETSK MISSILE AND SPACE COMPLEX (PKMTR)
aabbcc
Your satellite tracking list
Your tracking list is empty




NASA's NSSDC Master Catalog

Two Line Element Set (TLE):
1  6992U 73104H   19109.95590032 -.00000033 +00000-0 -92208-4 0  9997
2  6992 074.0271 096.8882 0086850 255.1912 164.4556 12.61240683087157
Source of the keplerian elements: AFSPC